When you browse on this site, cookies collect data to enhance your experience and personalize the content and advertising you see.
Visit our Privacy Policy to learn more. By continuing to use the site, you agree to this use of cookies and data.
  • In Latvia
  • List of Countries
  • For 7 days
  • Water Temperature
  • Weather Map
  • Weather Widgets
  • user-avatar
    Login

    Hourly Weather Inverclyde

    Today, 20 September, Friday

    Time Temperature Precipitation Wind Pressure Humidity
    00:00 +12°C° 0 mm 2 mps 768 mmHg 85%
    01:00 +12°C° 0 mm 2 mps 768 mmHg 80%
    02:00 +12°C° 0 mm 2 mps 768 mmHg 76%
    03:00 +12°C° 0 mm 2 mps 767 mmHg 71%
    04:00 +12°C° 0 mm 2 mps 767 mmHg 69%
    05:00 +12°C° 0 mm 2 mps 766 mmHg 67%
    06:00 +12°C° 0 mm 2 mps 766 mmHg 64%
    07:00 +14°C° 0 mm 1 mps 766 mmHg 62%
    08:00 +16°C° 0 mm 1 mps 766 mmHg 60%
    09:00 +19°C° 0 mm 1 mps 766 mmHg 58%
    10:00 +20°C° 0 mm 1 mps 765 mmHg 55%
    11:00 +22°C° 0 mm 1 mps 765 mmHg 51%
    12:00 +23°C° 0 mm 1 mps 765 mmHg 48%
    13:00 +23°C° 0 mm 1 mps 764 mmHg 50%
    14:00 +24°C° 0 mm 1 mps 764 mmHg 51%
    15:00 +24°C° 0 mm 1 mps 763 mmHg 53%
    16:00 +22°C° 0 mm 1 mps 763 mmHg 61%
    17:00 +20°C° 0 mm 1 mps 763 mmHg 69%
    18:00 +18°C° 0 mm 1 mps 762 mmHg 76%
    19:00 +16°C° 0 mm 1 mps 762 mmHg 79%
    20:00 +15°C° 0 mm 1 mps 762 mmHg 82%
    21:00 +14°C° 0 mm 1 mps 761 mmHg 84%
    22:00 +14°C° 0 mm 1 mps 761 mmHg 85%
    23:00 +14°C° 0 mm 1 mps 761 mmHg 86%

    Tomorrow, 21 September, Saturday

    Time Temperature Precipitation Wind Pressure Humidity
    00:00 +13°C° 0 mm 1 mps 760 mmHg 86%
    01:00 +13°C° 0 mm 1 mps 760 mmHg 87%
    02:00 +13°C° 0 mm 1 mps 759 mmHg 88%
    03:00 +13°C° 0 mm 1 mps 759 mmHg 88%
    04:00 +13°C° 0 mm 1 mps 758 mmHg 88%
    05:00 +12°C° 0 mm 1 mps 758 mmHg 88%
    06:00 +12°C° 0 mm 1 mps 758 mmHg 88%
    07:00 +14°C° 0 mm 1 mps 758 mmHg 81%
    08:00 +16°C° 0 mm 1 mps 757 mmHg 74%
    09:00 +19°C° 0 mm 1 mps 757 mmHg 67%
    10:00 +19°C° 0 mm 2 mps 757 mmHg 61%
    11:00 +21°C° 0 mm 2 mps 756 mmHg 54%
    12:00 +22°C° 0 mm 3 mps 756 mmHg 48%
    13:00 +22°C° 0 mm 3 mps 755 mmHg 49%
    14:00 +22°C° 0 mm 3 mps 755 mmHg 51%
    15:00 +22°C° 0 mm 3 mps 754 mmHg 53%
    16:00 +20°C° 0 mm 2 mps 754 mmHg 61%
    17:00 +18°C° 0 mm 2 mps 754 mmHg 69%
    18:00 +16°C° 0 mm 1 mps 754 mmHg 78%
    19:00 +15°C° 0 mm 1 mps 754 mmHg 81%
    20:00 +14°C° 0 mm 1 mps 754 mmHg 85%
    21:00 +13°C° 0 mm 1 mps 754 mmHg 89%
    22:00 +13°C° 0 mm 1 mps 753 mmHg 89%
    23:00 +13°C° 0 mm 1 mps 753 mmHg 89%

    Day after tomorrow, 22 September, Sunday

    Time Temperature Precipitation Wind Pressure Humidity
    00:00 +12°C° 0 mm 1 mps 753 mmHg 89%
    01:00 +13°C° 0 mm 1 mps 752 mmHg 87%
    02:00 +13°C° 0 mm 1 mps 752 mmHg 84%
    03:00 +13°C° 0 mm 1 mps 752 mmHg 82%
    04:00 +13°C° 0 mm 1 mps 752 mmHg 81%
    05:00 +14°C° 0 mm 1 mps 751 mmHg 79%
    06:00 +14°C° 0 mm 1 mps 751 mmHg 78%
    07:00 +15°C° 0 mm 1 mps 751 mmHg 77%
    08:00 +16°C° 0 mm 1 mps 751 mmHg 75%
    09:00 +18°C° 0 mm 1 mps 750 mmHg 73%
    10:00 +18°C° 0 mm 2 mps 750 mmHg 71%
    11:00 +19°C° 0 mm 2 mps 750 mmHg 69%
    12:00 +21°C° 0 mm 2 mps 750 mmHg 67%
    13:00 +21°C° 0 mm 2 mps 750 mmHg 67%
    14:00 +21°C° 0 mm 3 mps 749 mmHg 68%
    15:00 +22°C° 0 mm 3 mps 749 mmHg 69%
    16:00 +20°C° 0 mm 3 mps 749 mmHg 75%
    17:00 +19°C° 0 mm 2 mps 749 mmHg 81%
    18:00 +18°C° 0 mm 2 mps 748 mmHg 87%
    19:00 +17°C° 0 mm 2 mps 749 mmHg 89%
    20:00 +17°C° 0 mm 2 mps 749 mmHg 91%
    21:00 +16°C° 0 mm 2 mps 749 mmHg 93%
    22:00 +16°C° 0 mm 2 mps 749 mmHg 93%
    23:00 +16°C° 0 mm 1 mps 749 mmHg 94%

    23 September, Monday

    Time Temperature Precipitation Wind Pressure Humidity
    00:00 +15°C° 0 mm 1 mps 749 mmHg 95%
    01:00 +15°C° 0 mm 1 mps 749 mmHg 95%
    02:00 +15°C° 0 mm 1 mps 749 mmHg 95%
    03:00 +15°C° 0 mm 1 mps 749 mmHg 96%
    04:00 +15°C° 0 mm 1 mps 749 mmHg 95%
    05:00 +15°C° 0 mm 1 mps 749 mmHg 95%
    06:00 +15°C° 0 mm 1 mps 750 mmHg 95%
    07:00 +16°C° 0 mm 1 mps 750 mmHg 91%
    08:00 +16°C° 0 mm 1 mps 750 mmHg 87%
    09:00 +18°C° 0 mm 1 mps 750 mmHg 83%
    10:00 +19°C° 0 mm 1 mps 750 mmHg 78%
    11:00 +19°C° 0 mm 2 mps 750 mmHg 72%
    12:00 +20°C° 0 mm 3 mps 750 mmHg 66%
    13:00 +20°C° 0 mm 3 mps 750 mmHg 65%
    14:00 +20°C° 0 mm 3 mps 750 mmHg 64%
    15:00 +20°C° 0 mm 3 mps 750 mmHg 64%
    16:00 +19°C° 0 mm 3 mps 750 mmHg 70%
    17:00 +17°C° 0 mm 2 mps 749 mmHg 76%
    18:00 +16°C° 0 mm 2 mps 749 mmHg 83%
    19:00 +15°C° 0 mm 2 mps 749 mmHg 86%
    20:00 +14°C° 0 mm 2 mps 749 mmHg 89%
    21:00 +13°C° 0 mm 2 mps 749 mmHg 92%
    22:00 +13°C° 0 mm 2 mps 749 mmHg 90%
    23:00 +13°C° 0 mm 1 mps 749 mmHg 89%

    24 September, Tuesday

    Time Temperature Precipitation Wind Pressure Humidity
    00:00 +13°C° 0 mm 1 mps 748 mmHg 87%
    01:00 +13°C° 0.1 mm 1 mps 748 mmHg 88%
    02:00 +13°C° 0.1 mm 1 mps 748 mmHg 89%
    03:00 +13°C° 0.1 mm 1 mps 747 mmHg 91%
    04:00 +13°C° 0.1 mm 1 mps 747 mmHg 92%
    05:00 +13°C° 0.1 mm 1 mps 747 mmHg 93%
    06:00 +13°C° 0.1 mm 1 mps 747 mmHg 95%
    07:00 +14°C° 0 mm 1 mps 747 mmHg 92%
    08:00 +15°C° 0 mm 1 mps 747 mmHg 90%
    09:00 +16°C° 0 mm 1 mps 747 mmHg 87%
    10:00 +18°C° 0 mm 1 mps 747 mmHg 82%
    11:00 +19°C° 0 mm 1 mps 746 mmHg 78%
    12:00 +19°C° 0 mm 2 mps 746 mmHg 73%
    13:00 +19°C° 0 mm 2 mps 746 mmHg 74%
    14:00 +19°C° 0 mm 2 mps 746 mmHg 75%
    15:00 +19°C° 0 mm 2 mps 746 mmHg 75%
    16:00 +18°C° 0 mm 2 mps 745 mmHg 81%
    17:00 +17°C° 0 mm 2 mps 745 mmHg 87%
    18:00 +16°C° 0 mm 2 mps 745 mmHg 93%
    19:00 +15°C° 0 mm 2 mps 745 mmHg 93%
    20:00 +15°C° 0 mm 2 mps 745 mmHg 94%
    21:00 +14°C° 0 mm 2 mps 745 mmHg 95%
    22:00 +14°C° 0.1 mm 3 mps 745 mmHg 95%
    23:00 +14°C° 0.1 mm 3 mps 745 mmHg 95%

    25 September, Wednesday

    Time Temperature Precipitation Wind Pressure Humidity
    00:00 +14°C° 0.1 mm 3 mps 744 mmHg 95%
    01:00 +14°C° 0 mm 3 mps 744 mmHg 95%
    02:00 +14°C° 0 mm 3 mps 744 mmHg 95%
    03:00 +13°C° 0 mm 3 mps 744 mmHg 95%
    04:00 +13°C° 0 mm 3 mps 744 mmHg 95%
    05:00 +14°C° 0 mm 2 mps 744 mmHg 96%
    06:00 +13°C° 0 mm 2 mps 744 mmHg 96%
    07:00 +14°C° 0.2 mm 2 mps 744 mmHg 96%
    08:00 +14°C° 0.2 mm 2 mps 744 mmHg 95%
    09:00 +15°C° 0.2 mm 2 mps 744 mmHg 94%
    10:00 +15°C° 0.1 mm 2 mps 744 mmHg 93%
    11:00 +16°C° 0.1 mm 2 mps 744 mmHg 91%
    12:00 +16°C° 0.1 mm 2 mps 744 mmHg 89%
    13:00 +16°C° 0.1 mm 2 mps 744 mmHg 89%
    14:00 +16°C° 0.1 mm 2 mps 744 mmHg 89%
    15:00 +16°C° 0.1 mm 2 mps 744 mmHg 90%
    16:00 +16°C° 0.1 mm 2 mps 744 mmHg 91%
    17:00 +15°C° 0.1 mm 2 mps 744 mmHg 92%
    18:00 +15°C° 0.1 mm 2 mps 744 mmHg 93%
    19:00 +15°C° 0 mm 2 mps 744 mmHg 93%
    20:00 +14°C° 0 mm 2 mps 744 mmHg 94%
    21:00 +14°C° 0 mm 2 mps 744 mmHg 94%
    22:00 +14°C° 0 mm 2 mps 743 mmHg 94%
    23:00 +13°C° 0 mm 2 mps 742 mmHg 95%
    Show more